User: anonymous   Login
Location: Unspecified
(0.0000°N, 0.0000°E)
Time: 01:36:24
(UTC+00:00)
Language:

Orbcomm D8 (FM36) - Orbit

View from above orbital plane
View from above orbital plane
View from above satellite
View from above satellite

Ground track
Ground track

The orbit data is extracted from the following two-line orbital elements,

1 25984U 99065E   24201.50534045  .00002130  00000-0  77643-3 0  9998
2 25984  45.0376 225.0624 0002110  17.7586 342.3335 14.35881952286560
Epoch (UTC): 19 July 2024 12:07:41
Eccentricity: 0.0002110
inclination: 45.0376°
perigee height: 770 km
apogee height: 773 km
right ascension of ascending node: 225.0624°
argument of perigee: 17.7586°
revolutions per day: 14.35881952
mean anomaly at epoch: 342.3335°
orbit number at epoch: 28656

The dashed part of the orbit path shows where the satellite is in the earth's shadow,  

DLR